Regional Weather Roundup
Issued by NWS Little Rock, AR

Home | Current Version | Previous Version | Text Only | Print | Product List | Glossary On
Versions: 1 2 3 4 5 6 7 8 9 10 11 12 13 14 15 16 17 18 19 20 21 22 23 24 25 26 27 28 29 30 31 32 33 34 35 36 37 38 39 40 41 42 43 44 45 46 47 48 49 50
000
ASUS44 KLZK 030905
RWRLZK

WEATHER ROUNDUP FOR ARKANSAS
NATIONAL WEATHER SERVICE LITTLE ROCK AR
400 AM CDT TUE MAY 03 2016

NOTE: "FAIR" INDICATES FEW OR NO CLOUDS BELOW 12,000 FEET WITH NO
SIGNIFICANT WEATHER AND/OR OBSTRUCTIONS TO VISIBILITY.

ARZ001-003-010-029-031000-
NORTHWEST ARKANSAS

CITY           SKY/WX    TMP DP  RH WIND       PRES   REMARKS
FAYETTEVILLE   FOG       40  40 100 CALM      30.06F VSB 1/4
FORT SMITH     PTCLDY    47  43  86 W3        30.06S
HARRISON       CLOUDY    49  46  90 NW5       30.05R
BENTONVILLE    CLEAR    N/A N/A N/A CALM      30.06F
ROGERS         FOG       43  43 100 CALM      30.07  VSB 3/4
SILOAM SPGS    CLEAR     41  34  75 CALM      30.07F
HIGHFILL       CLEAR     44  42  93 CALM      30.06R
$$

ARZ004-005-016-031000-
NORTH CENTRAL ARKANSAS

CITY           SKY/WX    TMP DP  RH WIND       PRES   REMARKS
BATESVILLE     CLOUDY    54  46  76 NW3       30.02S
FLIPPIN        CLOUDY   N/A N/A N/A NW5       30.02R
MTN HOME       CLOUDY    51  47  86 VRB3      30.03R
$$

ARZ040-041-031000-
WEST CENTRAL ARKANSAS

CITY           SKY/WX    TMP DP  RH WIND       PRES   REMARKS
MENA           CLEAR     45  45 100 CALM      30.05F
MOUNT IDA      PTCLDY    47  45  93 CALM      30.01F
$$

ARZ009-017-025-026-028-031000-
NORTHEAST ARKANSAS

CITY           SKY/WX    TMP DP  RH WIND       PRES   REMARKS
CORNING          N/A     55  48  76 NW6       30.02R
JONESBORO      CLOUDY    57  50  77 N7        30.00S
NEWPORT        CLOUDY    56  50  80 NW7       30.02S
WALNUT RIDGE   CLOUDY    55  46  71 NW8       30.01S
BLYTHEVILLE    CLOUDY    57  52  83 N7        29.99S
$$

ARZ022-023-033-042-044-031000-
CENTRAL ARKANSAS

CITY           SKY/WX    TMP DP  RH WIND       PRES   REMARKS
LITTLE ROCK    CLOUDY    58  49  72 NW7       30.03R
N LITTLE ROCK    N/A     55  50  82 CALM      30.01S
JACKSONVILLE   CLOUDY    56  51  82 W5        30.02
SEARCY         CLOUDY    56  49  77 N7        30.03S
HOT SPRINGS    CLOUDY    56  51  84 CALM      30.03S
RUSSELLVILLE   PTCLDY    51  47  86 NW5       30.03S
$$

ARZ036-031000-
EAST ARKANSAS

CITY           SKY/WX    TMP DP  RH WIND       PRES   REMARKS
WEST MEMPHIS   CLEAR     56  53  90 N5        29.97S
$$

ARZ050-053-066-070-073-031000-
SOUTHWEST ARKANSAS

CITY           SKY/WX    TMP DP  RH WIND       PRES   REMARKS
ARKADELPHIA    FAIR      57  57 100 CALM      30.02F
CAMDEN         CLOUDY    57  50  77 N5        30.02S
TEXARKANA      CLEAR     51  47  86 NW7       30.04S
EL DORADO      CLEAR     54  53  97 NW3       30.02S
DE QUEEN       PTCLDY    46  45  96 CALM      30.04S FOG
$$

ARZ056-057-069-031000-
SOUTHEAST ARKANSAS

CITY           SKY/WX    TMP DP  RH WIND       PRES   REMARKS
PINE BLUFF     MOCLDY    57  51  80 N7        30.01S
STUTTGART      CLOUDY    55  48  76 NW9       30.01S
MONTICELLO     CLOUDY    59  54  83 CALM      29.99F

$$





USA.gov is the U.S. government's official web portal to all federal, state and local government web resources and services.